Location: Bow
(51.5261°N, 0.0167°W)
Time: 00:45:51
(UTC+00:00)

USA 234 - Visible Passes

Search period start: 24 January 2021 00:00
Search period end: 03 February 2021 00:00
Orbit: 1098 x 1110 km, 123.0° (Epoch: 22 January)

Date Brightness Start Highest point End Pass type
(mag) Time Alt. Az. Time Alt. Az. Time Alt. Az.
24 Jan 3.6 17:29:31 10° ENE 17:35:53 56° N 17:42:17 10° W visible
24 Jan 3.3 19:16:51 49° ENE 19:18:32 65° NNE 19:25:00 10° WNW visible
24 Jan 4.4 21:04:11 39° WNW 21:04:11 39° WNW 21:08:07 10° WNW visible
25 Jan 3.5 18:32:17 26° ENE 18:35:57 57° N 18:42:21 10° WNW visible
25 Jan 3.4 20:19:37 69° NW 20:19:37 69° NW 20:25:20 10° WNW visible
25 Jan 5.5 22:06:58 17° WNW 22:06:58 17° WNW 22:08:19 10° WNW visible
26 Jan 3.6 17:47:42 13° ENE 17:53:27 56° N 17:59:50 10° W visible
26 Jan 3.2 19:35:03 57° ENE 19:36:05 65° NNE 19:42:33 10° WNW visible
26 Jan 4.7 21:22:23 32° WNW 21:22:23 32° WNW 21:25:41 10° WNW visible
27 Jan 3.5 18:50:28 31° ENE 18:53:31 57° N 18:59:54 10° WNW visible
27 Jan 3.7 20:37:48 57° NW 20:37:48 57° NW 20:42:53 10° WNW visible
27 Jan 5.7 22:25:08 13° WNW 22:25:08 13° WNW 22:25:53 10° WNW visible
28 Jan 3.6 18:05:52 16° ENE 18:10:59 56° N 18:17:22 10° W visible
28 Jan 3.2 19:53:13 64° NE 19:53:38 66° NNE 20:00:07 10° WNW visible
28 Jan 4.9 21:40:33 26° WNW 21:40:33 26° WNW 21:43:14 10° WNW visible
29 Jan 3.5 17:21:59 10° ENE 17:28:27 64° NNW 17:34:55 10° W visible
29 Jan 3.5 19:08:37 37° ENE 19:11:04 57° N 19:17:27 10° WNW visible
29 Jan 4.0 20:55:57 47° WNW 20:55:57 47° WNW 21:00:27 10° WNW visible
29 Jan 5.8 22:43:18 11° WNW 22:43:18 11° WNW 22:43:26 10° WNW visible
30 Jan 3.6 18:24:01 20° ENE 18:28:33 56° N 18:34:56 10° W visible
30 Jan 3.3 20:11:21 65° N 20:11:21 65° N 20:17:40 10° WNW visible
30 Jan 5.2 21:58:41 22° WNW 21:58:41 22° WNW 22:00:47 10° WNW visible
31 Jan 3.5 17:39:32 10° ENE 17:46:00 64° NNW 17:52:29 10° W visible
31 Jan 3.5 19:26:45 43° ENE 19:28:38 57° N 19:35:01 10° WNW visible
31 Jan 4.3 21:14:05 40° WNW 21:14:05 40° WNW 21:18:00 10° WNW visible
01 Feb 3.6 18:42:08 24° ENE 18:46:06 56° N 18:52:29 10° W visible
01 Feb 3.5 20:29:28 61° NNW 20:29:28 61° NNW 20:35:14 10° WNW visible
01 Feb 5.4 22:16:49 18° WNW 22:16:49 18° WNW 22:18:21 10° WNW visible
02 Feb 3.5 17:57:31 12° ENE 18:03:34 63° NNW 18:10:01 10° W visible
02 Feb 3.5 19:44:51 49° NE 19:46:11 57° N 19:52:34 10° WNW visible
02 Feb 4.6 21:32:12 33° WNW 21:32:12 33° WNW 21:35:33 10° WNW visible
